Change the Weather History Date:

Tuesday, March 5, 2013

  Actual Average (KSAV) Record (KSAV)
Temperature  
Mean Temperature 53 °F 57 °F  
Max Temperature 69 °F 68 °F 86 °F (1955)
Min Temperature 37 °F 45 °F 25 °F (1960)
Degree Days  
Heating Degree Days 12 9  
Month to date heating degree days 46  
Since 1 July heating degree days 1563  
Cooling Degree Days 0 1  
Month to date cooling degree days 5  
Year to date cooling degree days 15  
Growing Degree Days 3 (Base 50)    
Moisture  
Dew Point 44 °F    
Average Humidity 67    
Maximum Humidity 100    
Minimum Humidity 44    
Precipitation  
Precipitation 0.00 in 0.12 in 3.57 in (1959)
Month to date precipitation 0.59  
Year to date precipitation 7.07  
Sea Level Pressure  
Sea Level Pressure 29.98 in    
Wind  
Wind Speed 5 mph (SW)    
Max Wind Speed 20 mph    
Max Gust Speed 31 mph    
Visibility 10 miles    
Events Rain    
T = Trace of Precipitation, MM = Missing Value Source: NWS Daily Summary

Daily Weather History Graph

Daily Weather History Graph

Search for Another Location

Airport or City:

Trip Planner

Search our weather history database for the weather conditions in past years. The results will help you decide how hot, cold, wet, or windy it might be!

Date:

Astronomy

Mar. 05, 2013 Rise Set
Actual Time 6:49 AM EST 6:27 PM EST
Civil Twilight 6:24 AM EST 6:52 PM EST
Nautical Twilight 5:56 AM EST 7:20 PM EST
Astronomical Twilight 5:27 AM EST 7:49 PM EST
Moon 1:45 AM EST (3/5) 12:20 PM EST (3/5)
Length of Visible Light 12h 27m
Length of Day
11h 38m
Last Quarter, 41% of the Moon is Illuminated
Mar 5
Last Quarter
Mar 11
New
Mar 19
First Quarter
Mar 27
Full
Apr 3
Last Quarter

Hourly Weather History & Observations

Time (EST) Temp. Windchill Dew Point Humidity Pressure Visibility Wind Dir Wind Speed Gust Speed Precip Events Conditions
12:15 AM 46.4 °F 44.3 °F 35.6 °F 66% 30.10 in 10.0 mi North 4.6 mph - N/A   Clear
12:35 AM 46.4 °F 44.3 °F 35.6 °F 66% 30.10 in 10.0 mi North 4.6 mph - N/A   Clear
12:55 AM 46.4 °F - 35.6 °F 66% 30.10 in 10.0 mi Calm Calm - N/A   Clear
1:35 AM 44.6 °F - 35.6 °F 71% 30.11 in 10.0 mi Calm Calm - N/A   Clear
1:55 AM 42.8 °F - 35.6 °F 76% 30.11 in 10.0 mi Calm Calm - N/A   Clear
2:15 AM 41.0 °F - 35.6 °F 81% 30.10 in 10.0 mi Calm Calm - N/A   Clear
2:35 AM 41.0 °F - 35.6 °F 81% 30.11 in 10.0 mi Calm Calm - N/A   Clear
2:55 AM 39.2 °F - 35.6 °F 87% 30.11 in 10.0 mi Calm Calm - N/A   Clear
3:15 AM 39.2 °F - 35.6 °F 87% 30.12 in 10.0 mi Calm Calm - N/A   Clear
3:35 AM 39.2 °F - 35.6 °F 87% 30.10 in 10.0 mi Calm Calm - N/A   Clear
3:55 AM 39.2 °F - 37.4 °F 93% 30.12 in 10.0 mi Calm Calm - N/A   Clear
4:15 AM 37.4 °F - 35.6 °F 93% 30.12 in 10.0 mi Calm Calm - N/A   Clear
4:35 AM 37.4 °F - 37.4 °F 100% 30.12 in 10.0 mi Calm Calm - N/A   Clear
4:55 AM 37.4 °F - 37.4 °F 100% 30.13 in 10.0 mi Calm Calm - N/A   Clear
5:35 AM 37.4 °F - 37.4 °F 100% 30.11 in 10.0 mi Calm Calm - N/A   Clear
5:55 AM 37.4 °F - 37.4 °F 100% 30.10 in 10.0 mi Calm Calm - N/A   Clear
6:15 AM 37.4 °F - 37.4 °F 100% 30.10 in 10.0 mi Calm Calm - N/A   Clear
6:35 AM 39.2 °F - 39.2 °F 100% 30.11 in 10.0 mi Calm Calm - N/A   Clear
6:55 AM 39.2 °F - 39.2 °F 100% 30.11 in 10.0 mi Calm Calm - N/A   Scattered Clouds
7:15 AM 41.0 °F - 41.0 °F 100% 30.11 in 10.0 mi Calm Calm - N/A   Mostly Cloudy
7:55 AM 44.6 °F 43.1 °F 37.4 °F 76% 30.11 in 10.0 mi SSE 3.5 mph - N/A   Mostly Cloudy
8:15 AM 46.4 °F 44.3 °F 37.4 °F 71% 30.10 in 10.0 mi SSE 4.6 mph - N/A   Overcast
8:35 AM 50.0 °F - 35.6 °F 58% 30.10 in 10.0 mi South 5.8 mph - N/A   Overcast
8:55 AM 51.8 °F - 35.6 °F 54% 30.10 in 10.0 mi South 6.9 mph - N/A   Overcast
9:15 AM 51.8 °F - 35.6 °F 54% 30.09 in 10.0 mi South 6.9 mph - N/A   Overcast
9:35 AM 53.6 °F - 35.6 °F 51% 30.09 in 10.0 mi South 8.1 mph - N/A   Overcast
9:55 AM 55.4 °F - 33.8 °F 44% 30.09 in 10.0 mi SW 8.1 mph - N/A   Overcast
10:15 AM 55.4 °F - 35.6 °F 47% 30.08 in 10.0 mi WSW 6.9 mph - N/A   Overcast
10:35 AM 57.2 °F - 35.6 °F 44% 30.08 in 10.0 mi SSW 6.9 mph 16.1 mph N/A   Overcast
10:55 AM 59.0 °F - 37.4 °F 45% 30.07 in 10.0 mi SSW 10.4 mph - N/A   Overcast
11:15 AM 59.0 °F - 37.4 °F 45% 30.07 in 10.0 mi SSW 9.2 mph - N/A   Overcast
11:35 AM 59.0 °F - 37.4 °F 45% 30.05 in 10.0 mi SSW 8.1 mph - N/A   Overcast
11:55 AM 60.8 °F - 39.2 °F 45% 30.04 in 10.0 mi SSW 9.2 mph - N/A   Overcast
12:15 PM 60.8 °F - 41.0 °F 48% 30.03 in 10.0 mi SSW 5.8 mph - N/A   Overcast
12:35 PM 60.8 °F - 41.0 °F 48% 30.01 in 10.0 mi SSW 4.6 mph - N/A   Overcast
12:55 PM 62.6 °F - 41.0 °F 45% 30.00 in 10.0 mi SW 5.8 mph - N/A   Overcast
1:15 PM 62.6 °F - 42.8 °F 48% 29.99 in 10.0 mi SSW 8.1 mph - N/A   Overcast
1:55 PM 64.4 °F - 44.6 °F 49% 29.97 in 10.0 mi SSW 6.9 mph - N/A   Overcast
2:15 PM 66.2 °F - 46.4 °F 49% 29.95 in 10.0 mi SW 10.4 mph - N/A   Overcast
2:35 PM 68.0 °F - 46.4 °F 46% 29.94 in 10.0 mi SW 10.4 mph - N/A   Overcast
2:55 PM 64.4 °F - 48.2 °F 56% 29.93 in 10.0 mi SW 10.4 mph 19.6 mph N/A   Overcast
3:15 PM 66.2 °F - 50.0 °F 56% 29.93 in 10.0 mi SW 15.0 mph 20.7 mph N/A   Overcast
3:35 PM 66.2 °F - 50.0 °F 56% 29.92 in 10.0 mi SSW 6.9 mph 17.3 mph N/A   Overcast
3:55 PM 68.0 °F - 50.0 °F 52% 29.90 in 10.0 mi SW 11.5 mph 18.4 mph N/A   Mostly Cloudy
4:15 PM 69.8 °F - 50.0 °F 49% 29.87 in 10.0 mi SSW 13.8 mph 20.7 mph N/A   Scattered Clouds
4:35 PM 68.0 °F - 51.8 °F 56% 29.85 in 10.0 mi South 9.2 mph 18.4 mph N/A   Scattered Clouds
4:55 PM 68.0 °F - 51.8 °F 56% 29.85 in 10.0 mi SSW 8.1 mph - N/A   Mostly Cloudy
5:15 PM 68.0 °F - 51.8 °F 56% 29.85 in 10.0 mi SW 6.9 mph - N/A   Overcast
5:35 PM 68.0 °F - 51.8 °F 56% 29.84 in 10.0 mi SSW 4.6 mph - N/A   Overcast
5:55 PM 68.0 °F - 53.6 °F 60% 29.83 in 10.0 mi South 5.8 mph - N/A   Overcast
6:15 PM 68.0 °F - 53.6 °F 60% 29.83 in 10.0 mi SW 10.4 mph - N/A   Overcast
6:35 PM 68.0 °F - 53.6 °F 60% 29.81 in 10.0 mi SSW 10.4 mph 20.7 mph N/A   Scattered Clouds
6:55 PM 68.0 °F - 53.6 °F 60% 29.78 in 10.0 mi SSW 15.0 mph 18.4 mph N/A   Clear
7:15 PM 68.0 °F - 53.6 °F 60% 29.78 in 10.0 mi SSW 16.1 mph 21.9 mph N/A   Clear
7:35 PM 68.0 °F - 53.6 °F 60% 29.77 in 10.0 mi SSW 12.7 mph 24.2 mph N/A   Clear
7:55 PM 68.0 °F - 53.6 °F 60% 29.76 in 10.0 mi SSW 13.8 mph 29.9 mph N/A   Clear
8:15 PM 66.2 °F - 53.6 °F 64% 29.76 in 10.0 mi SSW 19.6 mph 29.9 mph N/A   Scattered Clouds
8:35 PM 66.2 °F - 53.6 °F 64% 29.77 in 10.0 mi SW 19.6 mph 28.8 mph N/A   Mostly Cloudy
8:55 PM 62.6 °F - 57.2 °F 82% 29.81 in 10.0 mi WNW 12.7 mph 31.1 mph N/A Rain Light Rain
9:15 PM 60.8 °F - 57.2 °F 88% 29.82 in 7.0 mi West 11.5 mph 21.9 mph N/A Rain Light Rain
9:35 PM 60.8 °F - 53.6 °F 77% 29.81 in 10.0 mi West 9.2 mph 27.6 mph N/A   Overcast
9:55 PM 60.8 °F - 53.6 °F 77% 29.80 in 10.0 mi WSW 6.9 mph - N/A   Overcast
10:15 PM 60.8 °F - 53.6 °F 77% 29.81 in 10.0 mi West 9.2 mph - N/A   Overcast
10:35 PM 59.0 °F - 51.8 °F 77% 29.81 in 10.0 mi West 10.4 mph - N/A   Overcast
10:55 PM 59.0 °F - 51.8 °F 77% 29.82 in 10.0 mi West 16.1 mph - N/A   Mostly Cloudy
11:15 PM 59.0 °F - 51.8 °F 77% 29.81 in 10.0 mi West 9.2 mph - N/A   Mostly Cloudy
11:35 PM 57.2 °F - 48.2 °F 72% 29.82 in 10.0 mi WNW 17.3 mph 23.0 mph N/A   Mostly Cloudy
11:55 PM 55.4 °F - 44.6 °F 67% 29.82 in 10.0 mi West 17.3 mph 24.2 mph N/A   Scattered Clouds